Regional Weather Roundup
Issued by NWS Grand Forks, ND

Home | Current Version | Previous Version | Graphics & Text | Print | Product List | Glossary On
Versions: 1 2 3 4 5 6 7 8 9 10 11 12 13 14 15 16 17 18 19 20 21 22 23 24 25 26 27 28 29 30 31 32 33 34 35 36 37 38 39 40 41 42 43 44 45 46 47 48 49 50
000
ASUS43 KFGF 312231
RWRFGF
PRAIRIE TO PINES  WEATHER ROUNDUP
NATIONAL WEATHER SERVICE EASTERN NORTH DAKOTA/GRAND FORKS ND
500 PM CDT THU JUL 31 2014

 **SATELLITE DATA USED TO AUGMENT SKY COVER AT AUTOMATED STATIONS**
 *****  WEATHER ACROSS EASTERN NORTH DAKOTA  *****

CITY           SKY/WX    TMP DP  RH WIND       PRES   REMARKS
GRAND FORKS    MOSUNNY   84  61  45 NW5       30.00S
GRAND FRKS AFB MOSUNNY   82  62  51 VRB5      30.01F
GRAND FRKS NWS   N/A     84 N/A N/A N7          N/A
DEVILS LAKE    SUNNY     81  55  41 N5        30.04S
FARGO          MOSUNNY   83  58  42 N6        30.01S
WAHPETON ARPT  PTCLDY    81  52  36 N7        30.02F
$$

 ***** WEATHER ACROSS CENTRAL AND WESTERN NORTH DAKOTA  *****

CITY           SKY/WX    TMP DP  RH WIND       PRES   REMARKS
BISMARCK       SUNNY     87  49  26 CALM      30.06F
MINOT          SUNNY     81  54  39 SE6       30.05F
JAMESTOWN      MOSUNNY   82  54  37 VRB3      30.05F
MINOT AFB      SUNNY     81  55  41 E2        30.05F
GARRISON         N/A     80  57  45 CALM      30.07F
WILLISTON      SUNNY     89  54  30 E9        30.02F
DICKINSON      SUNNY     87  50  27 W5        30.06F
HETTINGER      SUNNY     87  50  27 VRB3      30.09F
$$

 *****  OTHER AIRPORT OBSERVATIONS IN OUR AREA  *****

CITY           SKY/WX    TMP DP  RH WIND       PRES   REMARKS
WALHALLA       FAIR      81  63  54 N7          N/A
GRAFTON AIRPOR FAIR      82  61  47 NW6       30.00F
VALLEY CITY AR FAIR      82  54  36 NW9       30.04F
CANDO          FAIR      81  57  44 N5        30.05F
CAVALIER APRT  FAIR      81  59  47 N6        30.01S
GWINNER        CLEAR     81  57  44 N5        30.05S
SHEYENNE NWR     N/A     84  55  36 N6        29.95
ROLLA            N/A     77  55  47 N10       30.08S
 ***** THE ABOVE OBSERVATIONS ARE NON NWS ARE NOT QUALITY
       CONTROLLED AND MAY MIS-REPORT RAIN FOR SNOW...
$$

  *****  WEATHER ACROSS NORTHERN MINNESOTA  *****

CITY           SKY/WX    TMP DP  RH WIND       PRES   REMARKS
FLAG ISLAND    SUNNY     77  55  47 N7        29.98S
WARROAD        SUNNY     81  55  41 W10       30.00S
ROSEAU           N/A     81  59  47 NW7       30.00S
HALLOCK        SUNNY     81  59  47 NW9       30.00S
THF RVR FALLS  MOSUNNY   79  57  47 NW10      30.02S
BAUDETTE       SUNNY     78  54  43 N8        30.01S
WASKISH        SUNNY     79  59  50 CALM      30.01S
CROOKSTON      SUNNY     81  63  54 NW9       30.01F
$$
  *****  WEATHER ACROSS CENTRAL AND WEST MINNESOTA  *****

CITY           SKY/WX    TMP DP  RH WIND       PRES   REMARKS
FOSSTON        MOSUNNY   77  61  57 NW8       30.03S
BEMIDJI        MOSUNNY   78  58  50 NW10      30.01F
PARK RAPIDS    MOSUNNY   80  58  46 W15G21    30.02S
ELBOW LAKE     FAIR      78  58  50 NW5       30.03F
WADENA         SUNNY     79  59  50 W7        30.02F
DETROIT LAKES  SUNNY     79  55  44 NW9       30.05S
MOORHEAD       SUNNY     82  57  42 NE10      30.02F
FERGUS FALLS   MOSUNNY   81  54  39 NW7       30.01F
MORRIS MN      SUNNY     82  59  44 W6        30.03S
STAPLES        SUNNY     81  55  41 W12       30.02S
$$
  *****  WEATHER ELSEWHERE ACROSS MINNESOTA  *****

CITY           SKY/WX    TMP DP  RH WIND       PRES   REMARKS
DULUTH         MOSUNNY   79  53  40 NW12      29.98S
INTRNTL FALLS  SUNNY     77  54  44 NW9       29.99R
ELY            SUNNY     73  48  40 NW9       29.98S
CLOQUET        SUNNY     79  54  41 NW10      29.98S
WHEATON        SUNNY     79  57  47 NW5       30.05S
BRAINERD       SUNNY     80  57  45 W10       30.00F
HIBBING        SUNNY     80  55  42 NW8       29.99S
ALEXANDRIA     SUNNY     80  56  43 VRB7      30.05F
SAINT CLOUD    MOSUNNY   84  54  35 NW7       30.00F
MINNEAPOLIS    MOSUNNY   83  52  34 W7        30.00F
$$

  *****  WEATHER ACROSS SOUTH DAKOTA  *****

CITY           SKY/WX    TMP DP  RH WIND       PRES   REMARKS
SIOUX FALLS    MOSUNNY   79  59  50 W7        30.05F
BROOKINGS      NOT AVBL
WATERTOWN      MOSUNNY   79  53  40 NW9       30.06F
HURON          SUNNY     82  53  36 CALM      30.04S
SISSETON         N/A     81  57  43 N7        30.03F
ABERDEEN       SUNNY     80  52  37 NE8       30.05S
MITCHELL       PTSUNNY   80  63  55 NE5       30.04F
PIERRE         SUNNY     87  47  24 NW9       30.03F
MOBRIDGE       SUNNY     86  49  27 NE5       30.03F
RAPID CITY     SUNNY     88  47  24 N7        30.12F
$$

  *****  SOME WEATHER IN NEARBY STATES *****

CITY           SKY/WX    TMP DP  RH WIND       PRES   REMARKS
GLASGOW MT     SUNNY     99  37  11 W10       29.95F HX  94
GREAT FALLS MT MOSUNNY   90  34  13 NW6       30.09S
CHEYENNE WY    MOSUNNY   73  43  33 SW6       30.30S
SCOTTSBLUFF NE SUNNY     87  41  19 N6        30.17F
OMAHA NE       PTSUNNY   83  56  39 SE10      30.03F
DES MOINES IA  PTSUNNY   81  54  39 W6        30.04F
DAVENPORT IA   MOSUNNY   80  60  50 W9        30.05F
CHICAGO IL     MOSUNNY   83  54  36 W14       30.01F
EAU CLAIRE WI  SUNNY     81  58  45 SW12      29.98F
LA CROSSE WI   SUNNY     83  56  39 W9        30.00S
$$

  *****  SOME NATIONAL WEATHER *****

CITY           SKY/WX    TMP DP  RH WIND       PRES   REMARKS
LA GUARDIA NY  MOSUNNY   78  63  59 S15       30.08S
RALEIGH NC     CLOUDY    80  65  59 SE5       30.12S
ATLANTA GA     LGT RAIN  73  69  87 NE16      30.06R
NEW ORLEANS LA PTSUNNY   87  64  46 N9        29.99S
OKLAHOMA CITY  CLOUDY    77  65  66 NE13      30.07S
ALBUQUERQUE NM PTSUNNY   80  56  43 SW6       30.19F
SALT LAKE CITY PTSUNNY   84  51  31 NW10G16   30.12F
LOS ANGELES CA MOSUNNY   75  62  64 W13       29.90F
BOISE ID       MOSUNNY   95  45  17 NW9       30.03F HX  91
SEATTLE WA     MOSUNNY   85  52  32 N12       30.08F
$$

*** WEATHER ACROSS MANITOBA...SASKATCHEWAN AND ONTARIO ***
                ***ONTARIO***

CITY           SKY/WX    TMP DP  RH WIND       PRES   REMARKS
GERALDTON      LGT RAIN  57  54  88 N6        29.93
THUNDER BAY    MOSUNNY   77  48  36 NW14      29.90F
SIOUX LOOKOUT  PTSUNNY   72  50  46 N7        29.98S
TORONTO        PTSUNNY   75  55  50 W15       30.01R
BIG TROUT LK   CLOUDY    68  46  45 N7        29.95S
PICKLE LAKE    CLOUDY    66  46  48 NE8       29.97R
DRYDEN         SUNNY     73  50  43 NW8       29.99S
KENORA         MOSUNNY   75  52  43 NW8       30.02R
$$
                *** MANITOBA***

CITY           SKY/WX    TMP DP  RH WIND       PRES   REMARKS
BRANDON        CLOUDY    79  57  47 NE10      30.05F
DAUPHIN        SUNNY     81  61  50 E2        30.04S
ISLAND LAKE    MOSUNNY   73  50  43 NW5       30.05S
PILOT MOUND      N/A    N/A N/A N/A N6          N/A
THE PAS        PTSUNNY   82  57  42 NE3       29.99
THOMPSON       MOSUNNY   81  55  41 SE3       30.02F
WINNIPEG       MOSUNNY   81  59  47 NW7       30.01F
LYNN LAKE      PTSUNNY   70  61  73 W5        29.99F
CHURCHILL      SUNNY     75  46  35 S9        30.05S
GILLAM         CLOUDY    73  50  43 NE3       30.06S
$$
                ***SASKATCHEWAN***

CITY           SKY/WX    TMP DP  RH WIND       PRES   REMARKS
ESTEVAN        MOSUNNY   81  57  44 SE6       30.06F
KINDERSLEY     PTSUNNY   81  64  57 E16       30.04F
LLOYDMINSTER   PTSUNNY   82  59  44 E12       30.08F
PRINCE ALBERT  PTSUNNY   82  63  51 S5        30.05S
REGINA         MOSUNNY   82  61  47 E12       30.04F
YORKTON        NOT AVBL
N. BATTLEFORD    N/A     81  63  54 E7        30.09R
LA RONGE       PTSUNNY   82  57  42 SE8       30.05S
SASKATOON      PTSUNNY   82  63  51 E10       30.06F
SWIFT CURRENT  SUNNY     90  55  31 NE10G17   30.00F
$$
NOTE: THESE ARE AUTOMATED STATIONS WITH LIMITED QUALITY CONTROL
      "FAIR" INDICATES FEW OR NO CLOUDS BELOW 12,000 FEET WITH NO
      SIGNIFICANT WEATHER AND/OR OBSTRUCTIONS TO VISIBILITY.
      SKY/WX - SKY CONDITION AND SIGNIFICANT WEATHER.
      TMP - AIR TEMPERATURE.    DP   - DEWPOINT TEMPERATURE.
      RH  - RELATIVE HUMIDITY.  PRES - PRESSURE.
      HX  - HEAT INDEX.         WCI  - WIND CHILL INDEX.
$


USA.gov is the U.S. government's official web portal to all federal, state and local government web resources and services.